Flag for Germany Weather past 2 weeks in Bietigheim-Bissingen, Baden-Württemberg, Germany

Now
58 °F

Overcast.


Feels Like: 58 °F
Forecast: 46 / 67 °F
Wind: 1 mph from Southwest

Location: Stuttgart-Echterdingen

Current Time: Sep 3, 2015 at 7:01:35 AM

Latest Report: Sep 3, 2015 at 5:00 AM


Visibility: 13 mi

Pressure: 29.97 "Hg

Humidity: 92%

Dew point: 55 °F

Location of Bietigheim-BissingenLocation

Historic Weather in Bietigheim-Bissingen — Graph

°F

Bietigheim-Bissingen temperature yesterday

Maximum temperature yesterday: 68 °F (at 3:00 PM)
Minimum temperature yesterday: 53 °F (at 5:00 AM)
Average temperature yesterday: 61 °F

Past Weeks' High & Low Weather Summary

 TemperatureHumidityPressure
High92 °F (Aug 30, 4:00 PM)97% (Aug 20, 8:00 AM)30.28 "Hg (Aug 20, 8:00 AM)
Low48 °F (Aug 26, 7:00 AM)25% (Aug 31, 6:00 PM)29.67 "Hg (Aug 24, 2:00 PM)
Average67 °F67%30.01 "Hg
* Reported Aug 19 5:00 AM — Sep 3 5:00 AM, Bietigheim-Bissingen, Weather by CustomWeather, © 2015

Note: Actual official high and low records may vary slightly from our data, if they occured in-between our weather recording intervals... More about our weather records

Advertising

Bietigheim-Bissingen weather history for previous 24 hours

 ConditionsComfort  
Time TempWeatherWind HumidityBarometerVisibility
5:00 AM
Thu, Sep 3
58 °FOvercast.1 mph92%29.97 "Hg12 mi
4:00 AM59 °FSprinkles. Overcast.2 mph89%29.96 "Hg9 mi
3:00 AM59 °FOvercast.1 mph84%29.96 "Hg25 mi
2:00 AM60 °FOvercast.1 mph84%29.97 "Hg31 mi
1:00 AM60 °FOvercast.1 mph77%29.98 "Hg31 mi
11:00 PM
Wed, Sep 2
62 °FOvercast.1 mph69%29.98 "Hg37 mi
10:00 PM62 °FOvercast.1 mph69%29.98 "Hg37 mi
9:00 PM64 °FOvercast.2 mph61%29.98 "Hg43 mi
8:00 PM65 °FPartly sunny.2 mph56%29.97 "Hg43 mi
7:00 PM67 °FPartly sunny.3 mph54%29.96 "Hg43 mi
6:00 PM68 °FScattered clouds.5 mph50%29.96 "Hg43 mi
4:00 PM68 °FScattered clouds.2 mph49%29.97 "Hg37 mi
3:00 PM68 °FPartly sunny.2 mph55%29.98 "Hg31 mi
2:00 PM66 °FPartly sunny.3 mph61%30.00 "Hg31 mi
1:00 PM64 °FPartly sunny.3 mph69%30.02 "Hg22 mi
12:00 PM64 °FPartly sunny.2 mph70%30.03 "Hg12 mi
11:00 AM62 °FPartly sunny.2 mph77%30.04 "Hg9 mi
10:00 AM60 °FPartly sunny.2 mph82%30.05 "Hg7 mi
9:00 AM58 °FScattered clouds.1 mph88%30.05 "Hg7 mi
8:00 AM55 °FPartly sunny.1 mph94%30.06 "Hg6 mi
7:00 AM53 °FScattered clouds.3 mph94%30.06 "Hg6 mi
Weather by CustomWeather, © 2015

See weather overviewHow to use our weather pages